Location: Marengo
(51.4813°N, 109.7825°W)
Time: 23:25:16
(UTC+00:00)

BlueWalker 3 - Visible Passes

Search period start: 20 February 2024 00:00
Search period end: 01 March 2024 00:00
Orbit: 486 x 500 km, 53.2° (Epoch: 20 February)

Date Brightness Start Highest point End Pass type
(mag) Time Alt. Az. Time Alt. Az. Time Alt. Az.
20 Feb 3.1 01:20:15 10° SSW 01:23:30 28° SE 01:26:44 10° E visible
20 Feb 1.9 02:57:42 10° WSW 03:01:14 76° WSW 03:01:14 76° WSW visible
21 Feb 1.8 02:34:01 10° WSW 02:37:48 87° SSE 02:38:39 52° ENE visible
21 Feb 4.9 04:12:29 10° W 04:13:08 14° W 04:13:08 14° W visible
22 Feb 1.8 02:10:17 10° WSW 02:14:05 86° SSE 02:16:00 28° ENE visible
22 Feb 4.1 03:48:45 10° W 03:50:29 25° WNW 03:50:29 25° WNW visible
23 Feb 1.8 01:46:33 10° WSW 01:50:20 85° SSE 01:53:17 16° ENE visible
23 Feb 3.0 03:25:01 10° W 03:27:47 44° WNW 03:27:47 44° WNW visible
24 Feb 1.9 01:22:48 10° WSW 01:26:35 84° SSE 01:30:23 10° ENE visible
24 Feb 2.0 03:01:15 10° W 03:05:02 65° N 03:05:02 65° N visible
25 Feb 2.0 02:37:29 10° W 02:41:16 65° N 02:42:15 44° ENE visible
25 Feb 4.8 04:15:53 10° WNW 04:16:44 16° WNW 04:16:44 16° WNW visible
26 Feb 2.0 02:13:42 10° W 02:17:28 65° N 02:19:27 26° ENE visible
26 Feb 3.9 03:52:06 10° WNW 03:53:56 27° WNW 03:53:56 27° WNW visible
27 Feb 2.1 01:49:53 10° W 01:53:40 65° N 01:56:39 15° E visible
27 Feb 2.7 03:28:17 10° WNW 03:31:08 48° W 03:31:08 48° W visible
28 Feb 2.1 01:26:04 10° W 01:29:50 65° N 01:33:36 10° E visible
28 Feb 1.7 03:04:28 10° WNW 03:08:15 80° SSW 03:08:20 79° S visible
29 Feb 1.8 02:40:38 10° WNW 02:44:26 82° SSW 02:45:33 43° ESE visible
29 Feb 4.8 04:19:15 10° W 04:20:02 14° W 04:20:02 14° W visible
